,,PA_Meas_PMT16A,,PR_Meas_QMR101_102,,RH_Meas_QMH101,,SR_Meas_QMS101,,TA_Meas_QMH101,,GenWind,,GenWind,
time,status,PA,status,PR,status,RH,status,SR,status,TA,status,DirAvg,status,SpdAvg,
2009-09-03, 00:00:05,VALID,917.948,VALID,0,VALID,95.7272,VALID,0,VALID,21.5737,VALID,348,VALID,0.369141,
2009-09-03, 00:01:05,VALID,917.946,VALID,0,VALID,95.7349,VALID,0,VALID,21.5737,VALID,348,VALID,0.0550781,
2009-09-03, 00:02:05,VALID,917.947,VALID,0,VALID,95.7196,VALID,0,VALID,21.5542,VALID,348,VALID,0.410547,
2009-09-03, 00:03:05,VALID,917.906,VALID,0,VALID,95.7044,VALID,0.107441,VALID,21.5331,VALID,348,VALID,0.551953,
2009-09-03, 00:04:05,VALID,917.925,VALID,0,VALID,95.7349,VALID,0,VALID,21.5526,VALID,348,VALID,0.302344,
2009-09-03, 00:05:05,VALID,917.893,VALID,0,VALID,95.712,VALID,0,VALID,21.5932,VALID,348,VALID,0.594531,
2009-09-03, 00:06:05,VALID,917.871,VALID,0,VALID,95.5824,VALID,0,VALID,21.5542,VALID,348,VALID,1.00117,
2009-09-03, 00:07:05,VALID,917.901,VALID,0,VALID,95.5519,VALID,0,VALID,21.5347,VALID,147,VALID,1.14453,
2009-09-03, 00:08:05,VALID,917.838,VALID,0,VALID,95.5214,VALID,0.107441,VALID,21.5136,VALID,147,VALID,0.864062,
2009-09-03, 00:09:05,VALID,917.82,VALID,0,VALID,95.4909,VALID,0,VALID,21.5136,VALID,147,VALID,0.916016,
2009-09-03, 00:10:05,VALID,917.796,VALID,0,VALID,95.4833,VALID,0,VALID,21.4941,VALID,147,VALID,0.716016,
2009-09-03, 00:11:05,VALID,917.729,VALID,0,VALID,95.468,VALID,0,VALID,21.4746,VALID,147,VALID,1.05938,
2009-09-03, 00:12:05,VALID,917.724,VALID,0,VALID,95.4909,VALID,0,VALID,21.4957,VALID,147,VALID,0.478906,
2009-09-03, 00:13:05,VALID,917.678,VALID,0,VALID,95.529,VALID,0.107441,VALID,21.4957,VALID,147,VALID,0.822656,
2009-09-03, 00:14:05,VALID,917.708,VALID,0,VALID,95.5519,VALID,0,VALID,21.4941,VALID,147,VALID,0.698047,
2009-09-03, 00:15:05,VALID,917.691,VALID,0,VALID,95.5748,VALID,0,VALID,21.5347,VALID,147,VALID,0.681641,
2009-09-03, 00:16:05,VALID,917.683,VALID,0,VALID,95.5824,VALID,0,VALID,21.5152,VALID,147,VALID,0.371875,
2009-09-03, 00:17:05,VALID,917.658,VALID,0,VALID,95.5824,VALID,0,VALID,21.5152,VALID,147,VALID,0.660937,
2009-09-03, 00:18:05,VALID,917.681,VALID,0,VALID,95.5671,VALID,0,VALID,21.5152,VALID,147,VALID,0.659766,
2009-09-03, 00:19:05,VALID,917.693,VALID,0,VALID,95.5443,VALID,0,VALID,21.4957,VALID,147,VALID,0.745703,
2009-09-03, 00:20:05,VALID,917.715,VALID,0,VALID,95.6129,VALID,0,VALID,21.4941,VALID,148,VALID,0.480859,
2009-09-03, 00:21:05,VALID,917.719,VALID,0,VALID,95.5671,VALID,0,VALID,21.4957,VALID,148,VALID,0.807813,
2009-09-03, 00:22:05,VALID,917.717,VALID,0,VALID,95.5519,VALID,0,VALID,21.4762,VALID,148,VALID,0.746094,
2009-09-03, 00:23:05,VALID,917.722,VALID,0,VALID,95.5976,VALID,0.107441,VALID,21.4567,VALID,148,VALID,0.493359,
2009-09-03, 00:24:05,VALID,917.713,VALID,0,VALID,95.6357,VALID,0,VALID,21.4762,VALID,148,VALID,0.251953,
2009-09-03, 00:25:05,VALID,917.71,VALID,0,VALID,95.651,VALID,0,VALID,21.455,VALID,148,VALID,0.236328,
2009-09-03, 00:26:05,VALID,917.718,VALID,0,VALID,95.6434,VALID,0.107441,VALID,21.455,VALID,148,VALID,0,
2009-09-03, 00:27:05,VALID,917.699,VALID,0,VALID,95.6434,VALID,0,VALID,21.4762,VALID,148,VALID,0.159375,
2009-09-03, 00:28:05,VALID,917.709,VALID,0,VALID,95.6967,VALID,0,VALID,21.4762,VALID,148,VALID,0,
2009-09-03, 00:29:05,VALID,917.699,VALID,0,VALID,95.6891,VALID,0,VALID,21.4746,VALID,148,VALID,0,
2009-09-03, 00:30:05,VALID,917.66,VALID,0,VALID,95.7196,VALID,0,VALID,21.4957,VALID,148,VALID,0,
2009-09-03, 00:31:05,VALID,917.64,VALID,0,VALID,95.6815,VALID,0.107441,VALID,21.5152,VALID,148,VALID,0,
2009-09-03, 00:32:05,VALID,917.632,VALID,0,VALID,95.6891,VALID,0,VALID,21.5152,VALID,148,VALID,0,
2009-09-03, 00:33:05,VALID,917.612,VALID,0,VALID,95.6739,VALID,0,VALID,21.5152,VALID,148,VALID,0,
2009-09-03, 00:34:05,VALID,917.587,VALID,0,VALID,95.6281,VALID,0,VALID,21.4746,VALID,148,VALID,0,
2009-09-03, 00:35:05,VALID,917.546,VALID,0,VALID,95.5976,VALID,0,VALID,21.4762,VALID,148,VALID,0,
2009-09-03, 00:36:05,VALID,917.557,VALID,0,VALID,95.5595,VALID,0,VALID,21.4762,VALID,148,VALID,0,
2009-09-03, 00:37:05,VALID,917.518,VALID,0,VALID,95.59,VALID,0,VALID,21.4762,VALID,148,VALID,0,
2009-09-03, 00:38:05,VALID,917.47,VALID,0,VALID,95.5595,VALID,0,VALID,21.4567,VALID,148,VALID,0,
2009-09-03, 00:39:05,VALID,917.517,VALID,0,VALID,95.5595,VALID,0,VALID,21.4567,VALID,148,VALID,0,
2009-09-03, 00:40:05,VALID,917.513,VALID,0,VALID,95.5519,VALID,0,VALID,21.4567,VALID,148,VALID,0,
2009-09-03, 00:41:05,VALID,917.527,VALID,0,VALID,95.5976,VALID,0,VALID,21.455,VALID,148,VALID,0,
2009-09-03, 00:42:05,VALID,917.553,VALID,0,VALID,95.468,VALID,0,VALID,21.4567,VALID,148,VALID,0,
2009-09-03, 00:43:05,VALID,917.537,VALID,0,VALID,95.4985,VALID,0,VALID,21.4355,VALID,148,VALID,0,
2009-09-03, 00:44:05,VALID,917.538,VALID,0,VALID,95.468,VALID,0,VALID,21.4372,VALID,148,VALID,0.616797,
2009-09-03, 00:45:05,VALID,917.543,VALID,0,VALID,95.4452,VALID,0,VALID,21.3965,VALID,148,VALID,0.489453,
2009-09-03, 00:46:05,VALID,917.51,VALID,0,VALID,95.4528,VALID,0,VALID,21.3981,VALID,148,VALID,0.375,
2009-09-03, 00:47:05,VALID,917.471,VALID,0,VALID,95.5519,VALID,0,VALID,21.3981,VALID,148,VALID,0.2875,
2009-09-03, 00:48:05,VALID,917.475,VALID,0,VALID,95.59,VALID,0,VALID,21.3965,VALID,148,VALID,0.00703125,
2009-09-03, 00:49:05,VALID,917.422,VALID,0,VALID,95.6281,VALID,0,VALID,21.4177,VALID,148,VALID,0.35,
2009-09-03, 00:50:05,VALID,917.394,VALID,0,VALID,95.59,VALID,0,VALID,21.3965,VALID,148,VALID,0.301172,
2009-09-03, 00:51:05,VALID,917.393,VALID,0,VALID,95.5595,VALID,0,VALID,21.3981,VALID,148,VALID,0.277344,
2009-09-03, 00:52:05,VALID,917.39,VALID,0,VALID,95.5748,VALID,0.107441,VALID,21.377,VALID,148,VALID,0.616406,
2009-09-03, 00:53:05,VALID,917.378,VALID,0,VALID,95.4299,VALID,0,VALID,21.3396,VALID,148,VALID,0.689453,
2009-09-03, 00:54:05,VALID,917.378,VALID,0,VALID,95.4452,VALID,0,VALID,21.3608,VALID,148,VALID,0.698438,
2009-09-03, 00:55:05,VALID,917.366,VALID,0,VALID,95.4528,VALID,0,VALID,21.3412,VALID,148,VALID,0.278906,
2009-09-03, 00:56:05,VALID,917.36,VALID,0,VALID,95.5138,VALID,0,VALID,21.3608,VALID,148,VALID,0.573047,
2009-09-03, 00:57:05,VALID,917.338,VALID,0,VALID,95.59,VALID,0,VALID,21.3396,VALID,148,VALID,0.45,
2009-09-03, 00:58:04,VALID,917.322,VALID,0,VALID,95.6129,VALID,0,VALID,21.3608,VALID,148,VALID,0.216016,
2009-09-03, 00:59:04,VALID,917.289,VALID,0,VALID,95.6739,VALID,0,VALID,21.3803,VALID,148,VALID,0,
2009-09-03, 01:00:04,VALID,917.313,VALID,0,VALID,95.6739,VALID,0,VALID,21.3786,VALID,148,VALID,0,
2009-09-03, 01:01:04,VALID,917.326,VALID,0,VALID,95.6815,VALID,0,VALID,21.3981,VALID,148,VALID,0,
2009-09-03, 01:02:04,VALID,917.319,VALID,0,VALID,95.651,VALID,0,VALID,21.4193,VALID,148,VALID,0,
2009-09-03, 01:03:04,VALID,917.281,VALID,0,VALID,95.7044,VALID,0,VALID,21.4388,VALID,148,VALID,0.298438,
2009-09-03, 01:04:04,VALID,917.292,VALID,0,VALID,95.59,VALID,0,VALID,21.4388,VALID,148,VALID,0.383594,
2009-09-03, 01:05:04,VALID,917.242,VALID,0,VALID,95.5748,VALID,0,VALID,21.4372,VALID,148,VALID,0.396094,
2009-09-03, 01:06:04,VALID,917.277,VALID,0,VALID,95.6281,VALID,0,VALID,21.4583,VALID,148,VALID,0.426562,
2009-09-03, 01:07:04,VALID,917.217,VALID,0,VALID,95.4299,VALID,0,VALID,21.4388,VALID,148,VALID,0.586328,
2009-09-03, 01:08:04,VALID,917.221,VALID,0,VALID,95.4223,VALID,0,VALID,21.4177,VALID,148,VALID,0.212891,
2009-09-03, 01:09:04,VALID,917.232,VALID,0,VALID,95.4528,VALID,0,VALID,21.4177,VALID,148,VALID,0,
2009-09-03, 01:10:04,VALID,917.227,VALID,0,VALID,95.5595,VALID,0,VALID,21.4177,VALID,148,VALID,0,
2009-09-03, 01:11:04,VALID,917.222,VALID,0,VALID,95.6053,VALID,0.107441,VALID,21.416,VALID,148,VALID,0.0015625,
2009-09-03, 01:12:04,VALID,917.2,VALID,0,VALID,95.6205,VALID,0,VALID,21.3965,VALID,148,VALID,0.162109,
2009-09-03, 01:13:04,VALID,917.221,VALID,0,VALID,95.6357,VALID,0,VALID,21.416,VALID,148,VALID,0.3,
2009-09-03, 01:14:04,VALID,917.193,VALID,0,VALID,95.5671,VALID,0.107441,VALID,21.3965,VALID,148,VALID,0.335156,
2009-09-03, 01:15:04,VALID,917.209,VALID,0,VALID,95.5824,VALID,0,VALID,21.3575,VALID,148,VALID,0.307422,
2009-09-03, 01:16:04,VALID,917.178,VALID,0,VALID,95.5748,VALID,0,VALID,21.338,VALID,148,VALID,0.452734,
2009-09-03, 01:17:04,VALID,917.162,VALID,0,VALID,95.6053,VALID,0.107441,VALID,21.338,VALID,148,VALID,0.336328,
2009-09-03, 01:18:04,VALID,917.124,VALID,0,VALID,95.6815,VALID,0,VALID,21.3185,VALID,148,VALID,0.371875,
2009-09-03, 01:19:04,VALID,917.097,VALID,0,VALID,95.6739,VALID,0.107441,VALID,21.3201,VALID,148,VALID,0.408203,
2009-09-03, 01:20:04,VALID,917.091,VALID,0,VALID,95.7196,VALID,0,VALID,21.2795,VALID,148,VALID,0.267578,
2009-09-03, 01:21:04,VALID,917.066,VALID,0,VALID,95.7577,VALID,0,VALID,21.2795,VALID,148,VALID,0.223047,
2009-09-03, 01:22:04,VALID,917.032,VALID,0,VALID,95.8568,VALID,0,VALID,21.3201,VALID,148,VALID,0,
2009-09-03, 01:23:04,VALID,917.047,VALID,0,VALID,95.895,VALID,0,VALID,21.3201,VALID,148,VALID,0,
2009-09-03, 01:24:04,VALID,917.002,VALID,0,VALID,95.8492,VALID,0,VALID,21.3022,VALID,148,VALID,0,
2009-09-03, 01:25:04,VALID,916.995,VALID,0,VALID,95.8568,VALID,0,VALID,21.3022,VALID,148,VALID,0,
2009-09-03, 01:26:04,VALID,916.985,VALID,0,VALID,95.9026,VALID,0,VALID,21.3006,VALID,148,VALID,0,
2009-09-03, 01:27:04,VALID,916.993,VALID,0,VALID,95.9102,VALID,0,VALID,21.3201,VALID,148,VALID,0,
2009-09-03, 01:28:04,VALID,916.974,VALID,0,VALID,95.8873,VALID,0,VALID,21.3006,VALID,148,VALID,0,
2009-09-03, 01:29:04,VALID,916.986,VALID,0,VALID,95.8797,VALID,0,VALID,21.3022,VALID,148,VALID,0,
2009-09-03, 01:30:04,VALID,916.949,VALID,0,VALID,95.8645,VALID,0,VALID,21.2616,VALID,148,VALID,0,
2009-09-03, 01:31:04,VALID,916.965,VALID,0,VALID,95.8797,VALID,0,VALID,21.2616,VALID,148,VALID,0,
2009-09-03, 01:32:04,VALID,916.919,VALID,0,VALID,95.8873,VALID,0,VALID,21.2616,VALID,148,VALID,0,
2009-09-03, 01:33:04,VALID,916.911,VALID,0,VALID,95.895,VALID,0,VALID,21.2421,VALID,148,VALID,0,
2009-09-03, 01:34:04,VALID,916.928,VALID,0,VALID,95.895,VALID,0,VALID,21.2616,VALID,148,VALID,0,
2009-09-03, 01:35:04,VALID,916.915,VALID,0,VALID,95.9026,VALID,0,VALID,21.2616,VALID,148,VALID,0,
2009-09-03, 01:36:04,VALID,916.889,VALID,0,VALID,95.9636,VALID,0,VALID,21.2827,VALID,148,VALID,0,
2009-09-03, 01:37:04,VALID,916.896,VALID,0,VALID,95.9788,VALID,0,VALID,21.3022,VALID,148,VALID,0,
2009-09-03, 01:38:04,VALID,916.894,VALID,0,VALID,95.9941,VALID,0,VALID,21.2795,VALID,148,VALID,0,
2009-09-03, 01:39:04,VALID,916.891,VALID,0,VALID,96.0093,VALID,0,VALID,21.3185,VALID,148,VALID,0,
2009-09-03, 01:40:04,VALID,916.873,VALID,0,VALID,96.0093,VALID,0,VALID,21.3185,VALID,148,VALID,0.295703,
2009-09-03, 01:41:04,VALID,916.897,VALID,0,VALID,96.055,VALID,0,VALID,21.3786,VALID,148,VALID,0.4125,
2009-09-03, 01:42:04,VALID,916.892,VALID,0,VALID,96.0322,VALID,0,VALID,21.377,VALID,148,VALID,0.162109,
2009-09-03, 01:43:04,VALID,916.876,VALID,0,VALID,96.0245,VALID,0,VALID,21.3965,VALID,148,VALID,0.164063,
2009-09-03, 01:44:04,VALID,916.886,VALID,0,VALID,95.9254,VALID,0.107441,VALID,21.4372,VALID,148,VALID,0.223828,
2009-09-03, 01:45:04,VALID,916.847,VALID,0,VALID,95.8187,VALID,0,VALID,21.4177,VALID,148,VALID,0.173047,
2009-09-03, 01:46:04,VALID,916.862,VALID,0,VALID,95.8416,VALID,0,VALID,21.416,VALID,148,VALID,0.25625,
2009-09-03, 01:47:04,VALID,916.859,VALID,0,VALID,95.8492,VALID,0,VALID,21.4177,VALID,148,VALID,0.296875,
2009-09-03, 01:48:04,VALID,916.826,VALID,0,VALID,95.7882,VALID,0,VALID,21.4177,VALID,148,VALID,0.177344,
2009-09-03, 01:49:04,VALID,916.796,VALID,0,VALID,95.712,VALID,0.107441,VALID,21.4372,VALID,148,VALID,0.195313,
2009-09-03, 01:50:04,VALID,916.802,VALID,0,VALID,95.7425,VALID,0,VALID,21.4372,VALID,148,VALID,0.272656,
2009-09-03, 01:51:04,VALID,916.752,VALID,0,VALID,95.7806,VALID,0,VALID,21.4567,VALID,148,VALID,0.141797,
2009-09-03, 01:52:04,VALID,916.764,VALID,0,VALID,95.712,VALID,0,VALID,21.455,VALID,148,VALID,0.169531,
2009-09-03, 01:53:04,VALID,916.779,VALID,0,VALID,95.712,VALID,0,VALID,21.4567,VALID,148,VALID,0.176172,
2009-09-03, 01:54:04,VALID,916.741,VALID,0,VALID,95.7044,VALID,0,VALID,21.4762,VALID,148,VALID,0.194922,
2009-09-03, 01:55:04,VALID,916.74,VALID,0,VALID,95.6053,VALID,0,VALID,21.4746,VALID,148,VALID,0.280078,
2009-09-03, 01:56:04,VALID,916.752,VALID,0,VALID,95.5062,VALID,0,VALID,21.455,VALID,148,VALID,0.240625,
2009-09-03, 01:57:04,VALID,916.716,VALID,0,VALID,95.4604,VALID,0.107441,VALID,21.4762,VALID,148,VALID,0.261719,
2009-09-03, 01:58:04,VALID,916.725,VALID,0,VALID,95.4604,VALID,0,VALID,21.455,VALID,148,VALID,0.151562,
2009-09-03, 01:59:04,VALID,916.686,VALID,0,VALID,95.4604,VALID,0,VALID,21.4957,VALID,148,VALID,0.222266,
2009-09-03, 02:00:04,VALID,916.668,VALID,0,VALID,95.4299,VALID,0,VALID,21.4957,VALID,148,VALID,0.137109,
2009-09-03, 02:01:04,VALID,916.676,VALID,0,VALID,95.4223,VALID,0,VALID,21.4941,VALID,148,VALID,0,
2009-09-03, 02:02:04,VALID,916.619,VALID,0,VALID,95.3689,VALID,0,VALID,21.5347,VALID,148,VALID,0,
2009-09-03, 02:03:04,VALID,916.623,VALID,0,VALID,95.3384,VALID,0,VALID,21.5347,VALID,148,VALID,0.138281,
2009-09-03, 02:04:04,VALID,916.627,VALID,0,VALID,95.3156,VALID,0,VALID,21.5347,VALID,148,VALID,0.420312,
2009-09-03, 02:05:04,VALID,916.625,VALID,0,VALID,95.2546,VALID,0,VALID,21.5347,VALID,148,VALID,0.423828,
2009-09-03, 02:06:04,VALID,916.636,VALID,0,VALID,95.3003,VALID,0,VALID,21.5526,VALID,148,VALID,0.461328,
2009-09-03, 02:07:04,VALID,916.637,VALID,0,VALID,95.2088,VALID,0,VALID,21.5136,VALID,148,VALID,0.569531,
2009-09-03, 02:08:04,VALID,916.668,VALID,0,VALID,95.1479,VALID,0,VALID,21.5152,VALID,148,VALID,0.527734,
2009-09-03, 02:09:04,VALID,916.672,VALID,0,VALID,95.1936,VALID,0,VALID,21.4746,VALID,148,VALID,0.472656,
2009-09-03, 02:10:04,VALID,916.645,VALID,0,VALID,95.4375,VALID,0,VALID,21.4957,VALID,148,VALID,0.473437,
2009-09-03, 02:11:04,VALID,916.659,VALID,0,VALID,95.3308,VALID,0,VALID,21.4567,VALID,148,VALID,0.614844,
2009-09-03, 02:12:04,VALID,916.656,VALID,0,VALID,95.4528,VALID,0,VALID,21.4762,VALID,148,VALID,0.438672,
2009-09-03, 02:13:04,VALID,916.659,VALID,0,VALID,95.468,VALID,0,VALID,21.4762,VALID,148,VALID,0.477344,
2009-09-03, 02:14:04,VALID,916.647,VALID,0,VALID,95.3537,VALID,0,VALID,21.4177,VALID,148,VALID,0.45625,
2009-09-03, 02:15:04,VALID,916.624,VALID,0,VALID,95.5214,VALID,0,VALID,21.416,VALID,148,VALID,0.248437,
2009-09-03, 02:16:04,VALID,916.607,VALID,0,VALID,95.5214,VALID,0,VALID,21.3981,VALID,148,VALID,0.230078,
2009-09-03, 02:17:04,VALID,916.602,VALID,0,VALID,95.59,VALID,0,VALID,21.4177,VALID,148,VALID,0.201172,
2009-09-03, 02:18:04,VALID,916.596,VALID,0,VALID,95.6662,VALID,0,VALID,21.4372,VALID,148,VALID,0,
2009-09-03, 02:19:04,VALID,916.597,VALID,0,VALID,95.5748,VALID,0,VALID,21.3965,VALID,148,VALID,0.096875,
2009-09-03, 02:20:04,VALID,916.578,VALID,0,VALID,95.5062,VALID,0,VALID,21.3575,VALID,148,VALID,0.289453,
2009-09-03, 02:21:04,VALID,916.559,VALID,0,VALID,95.5748,VALID,0,VALID,21.3786,VALID,148,VALID,0.0308594,
2009-09-03, 02:22:04,VALID,916.57,VALID,0,VALID,95.7044,VALID,0,VALID,21.377,VALID,148,VALID,0,
2009-09-03, 02:23:04,VALID,916.569,VALID,0,VALID,95.6662,VALID,0,VALID,21.3965,VALID,148,VALID,0,
2009-09-03, 02:24:04,VALID,916.543,VALID,0,VALID,95.6281,VALID,0.107441,VALID,21.377,VALID,148,VALID,0,
2009-09-03, 02:25:04,VALID,916.529,VALID,0,VALID,95.712,VALID,0,VALID,21.4177,VALID,148,VALID,0,
2009-09-03, 02:26:04,VALID,916.556,VALID,0,VALID,95.7196,VALID,0,VALID,21.416,VALID,148,VALID,0,
2009-09-03, 02:27:04,VALID,916.528,VALID,0,VALID,95.7501,VALID,0,VALID,21.4567,VALID,148,VALID,0,
2009-09-03, 02:28:04,VALID,916.516,VALID,0,VALID,95.7272,VALID,0,VALID,21.4567,VALID,148,VALID,0.228906,
2009-09-03, 02:29:04,VALID,916.517,VALID,0,VALID,95.712,VALID,0,VALID,21.455,VALID,148,VALID,0,
2009-09-03, 02:30:04,VALID,916.498,VALID,0,VALID,95.6815,VALID,0,VALID,21.4355,VALID,148,VALID,0,
2009-09-03, 02:31:04,VALID,916.496,VALID,0,VALID,95.7425,VALID,0,VALID,21.455,VALID,148,VALID,0,
2009-09-03, 02:32:04,VALID,916.493,VALID,0,VALID,95.7654,VALID,0,VALID,21.4746,VALID,148,VALID,0,
2009-09-03, 02:33:04,VALID,916.466,VALID,0,VALID,95.712,VALID,0,VALID,21.5152,VALID,148,VALID,0,
2009-09-03, 02:34:04,VALID,916.48,VALID,0,VALID,95.7349,VALID,0,VALID,21.5152,VALID,148,VALID,0,
2009-09-03, 02:35:04,VALID,916.461,VALID,0,VALID,95.6967,VALID,0,VALID,21.4941,VALID,148,VALID,0,
2009-09-03, 02:36:04,VALID,916.455,VALID,0,VALID,95.6891,VALID,0,VALID,21.5152,VALID,148,VALID,0,
2009-09-03, 02:37:04,VALID,916.467,VALID,0,VALID,95.773,VALID,0,VALID,21.5542,VALID,148,VALID,0,
2009-09-03, 02:38:04,VALID,916.441,VALID,0,VALID,95.7501,VALID,0,VALID,21.5737,VALID,148,VALID,0,
2009-09-03, 02:39:04,VALID,916.454,VALID,0,VALID,95.7196,VALID,0,VALID,21.5542,VALID,148,VALID,0.302344,
2009-09-03, 02:40:04,VALID,916.452,VALID,0.2,VALID,95.7044,VALID,0,VALID,21.5542,VALID,148,VALID,0.446875,
2009-09-03, 02:41:04,VALID,916.433,VALID,0,VALID,95.8187,VALID,0,VALID,21.5526,VALID,148,VALID,0.370313,
2009-09-03, 02:42:04,VALID,916.419,VALID,0,VALID,95.7044,VALID,0,VALID,21.5542,VALID,148,VALID,0,
2009-09-03, 02:43:04,VALID,916.386,VALID,0,VALID,95.651,VALID,0,VALID,21.5331,VALID,148,VALID,0,
2009-09-03, 02:44:04,VALID,916.379,VALID,0,VALID,95.6434,VALID,0,VALID,21.5347,VALID,148,VALID,0,
2009-09-03, 02:45:04,VALID,916.357,VALID,0,VALID,95.7196,VALID,0,VALID,21.5347,VALID,148,VALID,0,
2009-09-03, 02:46:04,VALID,916.362,VALID,0,VALID,95.773,VALID,0,VALID,21.5136,VALID,148,VALID,0,
2009-09-03, 02:47:04,VALID,916.334,VALID,0,VALID,95.773,VALID,0,VALID,21.5542,VALID,148,VALID,0,
2009-09-03, 02:48:04,VALID,916.316,VALID,0.2,VALID,95.7044,VALID,0,VALID,21.5542,VALID,148,VALID,0,
2009-09-03, 02:49:04,VALID,916.278,VALID,0,VALID,95.6967,VALID,0,VALID,21.4957,VALID,148,VALID,0,
2009-09-03, 02:50:04,VALID,916.303,VALID,0.2,VALID,95.6891,VALID,0,VALID,21.4957,VALID,148,VALID,0,
2009-09-03, 02:51:04,VALID,916.26,VALID,0,VALID,95.7806,VALID,0,VALID,21.5136,VALID,148,VALID,0,
2009-09-03, 02:52:04,VALID,916.237,VALID,0.2,VALID,95.7654,VALID,0,VALID,21.5347,VALID,148,VALID,0,
2009-09-03, 02:53:04,VALID,916.256,VALID,0.2,VALID,95.7958,VALID,0,VALID,21.5347,VALID,148,VALID,0,
2009-09-03, 02:54:04,VALID,916.255,VALID,0.4,VALID,95.8111,VALID,0,VALID,21.5152,VALID,148,VALID,0,
2009-09-03, 02:55:04,VALID,916.251,VALID,0.6,VALID,95.8111,VALID,0,VALID,21.5347,VALID,148,VALID,0.366406,
2009-09-03, 02:56:04,VALID,916.248,VALID,0.6,VALID,95.6967,VALID,0,VALID,21.4941,VALID,148,VALID,0.878516,
2009-09-03, 02:57:04,VALID,916.277,VALID,0.6,VALID,95.7425,VALID,0,VALID,21.5152,VALID,148,VALID,0.385547,
2009-09-03, 02:58:04,VALID,916.278,VALID,1.4,VALID,95.712,VALID,0,VALID,21.4957,VALID,148,VALID,0.249609,
2009-09-03, 02:59:04,VALID,916.278,VALID,1,VALID,95.3766,VALID,0,VALID,21.3965,VALID,264,VALID,1.63711,
2009-09-03, 03:00:04,VALID,916.291,VALID,0.6,VALID,95.3308,VALID,0,VALID,21.4372,VALID,264,VALID,0.732422,
2009-09-03, 03:01:04,VALID,916.263,VALID,0.4,VALID,95.186,VALID,0,VALID,21.3965,VALID,265,VALID,0.723047,
2009-09-03, 03:02:04,VALID,916.27,VALID,0.2,VALID,95.2317,VALID,0,VALID,21.4177,VALID,265,VALID,0.297656,
2009-09-03, 03:03:04,VALID,916.293,VALID,0.2,VALID,95.3766,VALID,0,VALID,21.3965,VALID,265,VALID,0.596484,
2009-09-03, 03:04:04,VALID,916.297,VALID,0.2,VALID,95.4985,VALID,0,VALID,21.4372,VALID,265,VALID,0.442578,
2009-09-03, 03:05:04,VALID,916.287,VALID,0.2,VALID,95.5824,VALID,0,VALID,21.416,VALID,315,VALID,1.05313,
2009-09-03, 03:06:04,VALID,916.312,VALID,0.2,VALID,95.5367,VALID,0,VALID,21.377,VALID,358,VALID,0.950781,
2009-09-03, 03:07:04,VALID,916.315,VALID,0.2,VALID,95.4985,VALID,0,VALID,21.3185,VALID,1,VALID,3.12109,
2009-09-03, 03:08:04,VALID,916.369,VALID,0,VALID,95.6739,VALID,0.107441,VALID,21.3591,VALID,339,VALID,1.63203,
2009-09-03, 03:09:04,VALID,916.381,VALID,0.4,VALID,95.59,VALID,0,VALID,21.3396,VALID,338,VALID,0.610547,
2009-09-03, 03:10:04,VALID,916.359,VALID,0.6,VALID,95.4909,VALID,0,VALID,21.3006,VALID,338,VALID,0.667578,
2009-09-03, 03:11:04,VALID,916.402,VALID,0.4,VALID,95.5976,VALID,0,VALID,21.3006,VALID,338,VALID,0.313672,
2009-09-03, 03:12:04,VALID,916.376,VALID,0.4,VALID,95.6281,VALID,0,VALID,21.2616,VALID,338,VALID,0.368359,
2009-09-03, 03:13:04,VALID,916.378,VALID,0.6,VALID,95.6739,VALID,0.107441,VALID,21.2421,VALID,338,VALID,1.11016,
2009-09-03, 03:14:04,VALID,916.346,VALID,0.8,VALID,95.6357,VALID,0,VALID,21.1819,VALID,54,VALID,2.51172,
2009-09-03, 03:15:04,VALID,916.342,VALID,1.2,VALID,95.6815,VALID,0,VALID,21.2031,VALID,47,VALID,1.84531,
2009-09-03, 03:16:04,VALID,916.296,VALID,1,VALID,95.7272,VALID,0,VALID,21.164,VALID,65,VALID,1.35273,
2009-09-03, 03:17:04,VALID,916.268,VALID,0.4,VALID,95.8263,VALID,0.107441,VALID,21.1429,VALID,75,VALID,1.01367,
2009-09-03, 03:18:04,VALID,916.298,VALID,0.4,VALID,95.895,VALID,0,VALID,21.1445,VALID,75,VALID,0.582812,
2009-09-03, 03:19:04,VALID,916.293,VALID,0.8,VALID,95.9636,VALID,0,VALID,21.1445,VALID,75,VALID,0.933984,
2009-09-03, 03:20:04,VALID,916.298,VALID,1.2,VALID,95.9788,VALID,0,VALID,21.1039,VALID,75,VALID,0.476563,
2009-09-03, 03:21:04,VALID,916.302,VALID,1.4,VALID,96.0093,VALID,0,VALID,21.1234,VALID,75,VALID,0.628906,
2009-09-03, 03:22:04,VALID,916.254,VALID,1.2,VALID,96.0322,VALID,0,VALID,21.125,VALID,75,VALID,0.515625,
2009-09-03, 03:23:04,VALID,916.324,VALID,1.4,VALID,96.0627,VALID,0,VALID,21.125,VALID,75,VALID,0.246094,
2009-09-03, 03:24:04,VALID,916.296,VALID,1,VALID,96.1236,VALID,0,VALID,21.125,VALID,75,VALID,0.258984,
2009-09-03, 03:25:04,VALID,916.277,VALID,0.8,VALID,96.1618,VALID,0,VALID,21.1445,VALID,75,VALID,0.792578,
2009-09-03, 03:26:04,VALID,916.259,VALID,1,VALID,96.1084,VALID,0,VALID,21.1445,VALID,75,VALID,0.842578,
2009-09-03, 03:27:04,VALID,916.266,VALID,0.6,VALID,96.1541,VALID,0,VALID,21.125,VALID,75,VALID,0.584766,
2009-09-03, 03:28:04,VALID,916.243,VALID,0.2,VALID,96.2075,VALID,0,VALID,21.125,VALID,75,VALID,1.22695,
2009-09-03, 03:29:04,VALID,916.268,VALID,0.2,VALID,96.1923,VALID,0,VALID,21.1429,VALID,75,VALID,0.894922,
2009-09-03, 03:30:04,VALID,916.271,VALID,0.4,VALID,96.1694,VALID,0,VALID,21.1429,VALID,27,VALID,1.93906,
2009-09-03, 03:31:04,VALID,916.269,VALID,0.2,VALID,96.1465,VALID,0,VALID,21.1234,VALID,354,VALID,1.60703,
2009-09-03, 03:32:04,VALID,916.276,VALID,0.4,VALID,96.1694,VALID,0.107441,VALID,21.1234,VALID,354,VALID,0.989062,
2009-09-03, 03:33:04,VALID,916.271,VALID,0.4,VALID,96.1694,VALID,0,VALID,21.125,VALID,354,VALID,1,
2009-09-03, 03:34:04,VALID,916.26,VALID,0.6,VALID,96.1846,VALID,0,VALID,21.1039,VALID,332,VALID,1.03906,
2009-09-03, 03:35:04,VALID,916.263,VALID,0.4,VALID,96.2456,VALID,0,VALID,21.1039,VALID,331,VALID,0.722656,
2009-09-03, 03:36:04,VALID,916.283,VALID,0.4,VALID,96.2685,VALID,0,VALID,21.1445,VALID,331,VALID,0.0984375,
2009-09-03, 03:37:04,VALID,916.309,VALID,0.2,VALID,96.238,VALID,0,VALID,21.1039,VALID,331,VALID,0.678906,
2009-09-03, 03:38:04,VALID,916.308,VALID,0.2,VALID,96.2609,VALID,0,VALID,21.1039,VALID,331,VALID,0.668359,
2009-09-03, 03:39:04,VALID,916.327,VALID,0.2,VALID,96.2533,VALID,0,VALID,21.1234,VALID,331,VALID,0.283984,
2009-09-03, 03:40:04,VALID,916.312,VALID,0,VALID,96.2456,VALID,0,VALID,21.125,VALID,331,VALID,0.563672,
2009-09-03, 03:41:04,VALID,916.346,VALID,0.4,VALID,96.2685,VALID,0,VALID,21.0844,VALID,331,VALID,0.873438,
2009-09-03, 03:42:04,VALID,916.341,VALID,0.4,VALID,96.3295,VALID,0,VALID,21.1445,VALID,332,VALID,0.733594,
2009-09-03, 03:43:04,VALID,916.36,VALID,0.4,VALID,96.3219,VALID,0,VALID,21.164,VALID,332,VALID,0.735547,
2009-09-03, 03:44:04,VALID,916.362,VALID,0.2,VALID,96.2837,VALID,0,VALID,21.1445,VALID,332,VALID,0.317578,
2009-09-03, 03:45:04,VALID,916.399,VALID,0.4,VALID,96.2685,VALID,0,VALID,21.125,VALID,332,VALID,0.939453,
2009-09-03, 03:46:04,VALID,916.422,VALID,0,VALID,96.2914,VALID,0,VALID,21.125,VALID,332,VALID,0.503516,
2009-09-03, 03:47:04,VALID,916.42,VALID,0.2,VALID,96.3295,VALID,0,VALID,21.1055,VALID,332,VALID,0.320313,